Flag for Canada Weather past 2 weeks in Kamloops, British Columbia, Canada

Now
34 °F

Light snow. Mostly cloudy.


Feels Like: 30 °F
Forecast: 26 / 34 °F
Wind: 5 mph from East

Location: Kamloops

Current Time: Dec 27, 2014 at 2:23:03 PM

Latest Report: Dec 27, 2014 at 1:03 PM


Visibility: 10 mi

Pressure: 29.97 "Hg

Humidity: 87%

Dew point: 30 °F

Location of KamloopsLocation

Historic Weather in Kamloops — Graph

°F

Kamloops temperature yesterday

Maximum temperature yesterday: 36 °F (at 1:00 PM)
Minimum temperature yesterday: 28 °F (at 5:00 AM)
Average temperature yesterday: 32 °F

Past Weeks' High & Low Weather Summary

 TemperatureHumidityPressure
High52 °F (Dec 12, 1:00 PM)100% (Dec 13, 8:57 AM)30.40 "Hg (Dec 13, 8:57 AM)
Low25 °F (Dec 16, 7:00 AM)47% (Dec 12, 1:00 PM)29.33 "Hg (Dec 20, 10:00 PM)
Average34 °F82%30.04 "Hg
* Reported Dec 12 1:00 PM — Dec 27 1:03 PM, Kamloops, Weather by CustomWeather, © 2014

Note: Actual official high and low records may vary slightly from our data, if they occured in-between our weather recording intervals... More about our weather records

Advertising

Kamloops weather history for previous 24 hours

 ConditionsComfort  
Time TempWeatherWind HumidityBarometerVisibility
1:03 PM
Dec 27
34 °FLight snow. Mostly cloudy.5 mph87%29.97 "Hg10 mi
12:00 PM34 °FMostly cloudy.3 mph81%29.99 "Hg15 mi
11:00 AM34 °FMostly cloudy.3 mph81%30.02 "Hg25 mi
10:00 AM32 °FMostly cloudy.8 mph87%30.05 "Hg20 mi
9:00 AM32 °FPartly sunny.8 mph87%30.06 "Hg10 mi
8:00 AM30 °FLight snow. Mostly cloudy.9 mph93%30.08 "Hg7 mi
7:53 AM30 °FLight snow. Mostly cloudy.9 mph86%30.08 "Hg7 mi
7:00 AM30 °FMostly cloudy.7 mph86%30.11 "Hg25 mi
6:00 AM30 °FMostly cloudy.7 mph93%30.13 "Hg40 mi
5:00 AM30 °FMostly cloudy.7 mph93%30.16 "Hg25 mi
4:50 AM30 °FMostly cloudy.5 mph93%30.17 "Hg25 mi
4:00 AM30 °FOvercast.5 mph86%30.20 "Hg25 mi
3:00 AM30 °FLight snow. Mostly cloudy.3 mph86%30.24 "Hg15 mi
2:00 AM30 °FOvercast.3 mph86%30.25 "Hg25 mi
1:00 AM30 °FOvercast.No wind86%30.25 "Hg40 mi
12:00 AM30 °FOvercast.No wind86%30.27 "Hg40 mi
11:00 PM
Dec 26
28 °FOvercast.No wind93%30.29 "Hg40 mi
10:00 PM30 °FMostly cloudy.2 mph86%30.29 "Hg40 mi
9:00 PM28 °FMostly cloudy.No wind86%30.30 "Hg40 mi
8:00 PM30 °FMostly cloudy.No wind86%30.31 "Hg40 mi
7:00 PM30 °FOvercast.5 mph80%30.31 "Hg40 mi
6:00 PM30 °FMostly cloudy.6 mph80%30.32 "Hg40 mi
5:00 PM32 °FPassing clouds.6 mph80%30.33 "Hg40 mi
4:00 PM32 °FPartly sunny.No wind80%30.32 "Hg40 mi
3:00 PM34 °FPartly sunny.8 mph75%30.29 "Hg40 mi
2:00 PM36 °FBroken clouds.6 mph70%30.31 "Hg40 mi
Weather by CustomWeather, © 2014

See weather overviewHow to use our weather pages